This is the latest recevied weather packets stored in our database for station/object K0APR. If no packets are shown the sender has not sent any weather packets the latest 10 day(s).
| Time | Temp. | Humidity | Pressure | Rain* | Wind** | Luminosity | Snow |
|---|---|---|---|---|---|---|---|
| 1788365291 | 25° C | 76% | 1013 hPa | 0 mm | - | 547 W/m² | - |
| 1788364986 | 23.89° C | 80% | 1013 hPa | 0 mm | - | 572 W/m² | - |
| 1788364684 | 22.78° C | 84% | 1013 hPa | 0 mm | - | 565 W/m² | - |
| 1788364383 | 22.78° C | 84% | 1013.3 hPa | 0 mm | - | 169 W/m² | - |
| 1788364078 | 21.67° C | 86% | 1012.7 hPa | 0 mm | - | 494 W/m² | - |
| 1788363774 | 22.22° C | 86% | 1013 hPa | 0 mm | - | 496 W/m² | - |
| 1788363472 | 21.67° C | 87% | 1012.3 hPa | 0 mm | - | 485 W/m² | - |
| 1788363167 | 20.56° C | 89% | 1012.7 hPa | 0 mm | - | 477 W/m² | - |
| 1788362863 | 20.56° C | 90% | 1012.7 hPa | 0 mm | - | 456 W/m² | - |
| 1788362559 | 20.56° C | 91% | 1012.7 hPa | 0 mm | - | 450 W/m² | - |
| 1788362259 | 20° C | 92% | 1012.7 hPa | 0 mm | - | 446 W/m² | - |
| 1788361954 | 19.44° C | 92% | 1012.7 hPa | 0 mm | - | 211 W/m² | - |
| 1788361648 | 19.44° C | 92% | 1012.3 hPa | 0 mm | - | 68 W/m² | - |
| 1788361345 | 19.44° C | 92% | 1012.3 hPa | 0 mm | - | 64 W/m² | - |
| 1788361044 | 19.44° C | 92% | 1012.7 hPa | 0 mm | - | 61 W/m² | - |
| 1788360744 | 19.44° C | 91% | 1013 hPa | 0 mm | - | 53 W/m² | - |
| 1788360440 | 19.44° C | 91% | 1013.3 hPa | 0 mm | - | 42 W/m² | - |
| 1788360136 | 19.44° C | 91% | 1013 hPa | 0 mm | - | 36 W/m² | - |
| 1788359831 | 19.44° C | 91% | 1013 hPa | 0 mm | - | 40 W/m² | - |
| 1788359526 | 19.44° C | 90% | 1013.3 hPa | 0 mm | - | 42 W/m² | - |
| 1788359223 | 19.44° C | 90% | 1013.3 hPa | 0 mm | - | 43 W/m² | - |
| 1788358918 | 20° C | 90% | 1013.3 hPa | 0 mm | - | 46 W/m² | - |
| 1788358617 | 20° C | 90% | 1013.7 hPa | 0 mm | - | 53 W/m² | - |
| 1788358313 | 19.44° C | 90% | 1013.3 hPa | 0 mm | - | 71 W/m² | - |
| 1788358009 | 19.44° C | 90% | 1013.7 hPa | 0 mm | - | 89 W/m² | - |
* Rain latest hour (hover to see other rain measurements)
** Current wind speed in m/s (hover to see current wind gust speed)